Time,TemperatureF,DewpointF,PressureIn,WindDirection,WindDirectionDegrees,WindSpeedMPH,WindSpeedGustMPH,Humidity,HourlyPrecipIn,Conditions,Clouds,dailyrainin,SoftwareType,DateUTC
2013-12-09 00:09:00,57.6,58.0,30.04,ENE,68,0.0,-999.0,100,-99.99,,,0.00,weatherlink.com 1.10,2013-12-09 06:09:00,
2013-12-09 00:26:00,58.0,58.0,30.04,ENE,76,0.0,-999.0,100,-99.99,,,0.00,weatherlink.com 1.10,2013-12-09 06:26:00,
2013-12-09 00:40:00,59.0,59.0,30.03,ENE,76,0.0,-999.0,100,-99.99,,,0.00,weatherlink.com 1.10,2013-12-09 06:40:00,
2013-12-09 00:54:00,59.5,60.0,30.03,ENE,76,0.0,-999.0,100,-99.99,,,0.00,weatherlink.com 1.10,2013-12-09 06:54:00,
2013-12-09 01:09:00,59.9,60.0,30.03,SSE,161,0.0,-999.0,100,-99.99,,,0.00,weatherlink.com 1.10,2013-12-09 07:09:00,
2013-12-09 01:25:00,61.1,61.0,30.04,WSW,247,0.0,-999.0,100,-99.99,,,0.00,weatherlink.com 1.10,2013-12-09 07:25:00,
2013-12-09 01:40:00,61.0,61.0,30.05,NW,306,0.0,-999.0,100,-99.99,,,0.00,weatherlink.com 1.10,2013-12-09 07:40:00,
2013-12-09 01:55:00,60.1,60.0,30.05,NW,314,2.0,-999.0,100,-99.99,,,0.00,weatherlink.com 1.10,2013-12-09 07:55:00,
2013-12-09 02:10:00,59.4,59.0,30.05,NW,314,0.0,-999.0,100,-99.99,,,0.00,weatherlink.com 1.10,2013-12-09 08:10:00,
2013-12-09 02:25:00,58.2,58.0,30.06,WNW,294,0.0,-999.0,100,-99.99,,,0.00,weatherlink.com 1.10,2013-12-09 08:25:00,
2013-12-09 02:40:00,57.5,58.0,30.06,WNW,294,2.0,-999.0,100,-99.99,,,0.00,weatherlink.com 1.10,2013-12-09 08:40:00,
2013-12-09 02:55:00,57.3,57.0,30.05,NW,317,0.0,-999.0,100,-99.99,,,0.00,weatherlink.com 1.10,2013-12-09 08:55:00,
2013-12-09 03:11:00,57.2,57.0,30.05,NNW,342,0.0,-999.0,100,-99.99,,,0.00,weatherlink.com 1.10,2013-12-09 09:11:00,
2013-12-09 03:25:00,57.2,57.0,30.05,NNW,342,0.0,-999.0,100,-99.99,,,0.00,weatherlink.com 1.10,2013-12-09 09:25:00,
2013-12-09 03:40:00,57.2,57.0,30.05,NNW,342,0.0,-999.0,100,-99.99,,,0.00,weatherlink.com 1.10,2013-12-09 09:40:00,
2013-12-09 03:54:00,57.3,57.0,30.05,NNW,342,0.0,-999.0,100,-99.99,,,0.00,weatherlink.com 1.10,2013-12-09 09:54:00,
2013-12-09 04:09:00,57.5,58.0,30.05,NNW,342,0.0,-999.0,100,-99.99,,,0.01,weatherlink.com 1.10,2013-12-09 10:09:00,
2013-12-09 04:24:00,57.7,58.0,30.05,NNW,342,0.0,-999.0,100,-99.99,,,0.01,weatherlink.com 1.10,2013-12-09 10:24:00,
2013-12-09 04:39:00,57.8,58.0,30.06,NNW,342,0.0,-999.0,100,-99.99,,,0.01,weatherlink.com 1.10,2013-12-09 10:39:00,
2013-12-09 04:55:00,57.8,58.0,30.06,NNW,341,2.0,-999.0,100,-99.99,,,0.01,weatherlink.com 1.10,2013-12-09 10:55:00,
2013-12-09 05:10:00,57.7,58.0,30.06,North,350,0.0,-999.0,100,-99.99,,,0.01,weatherlink.com 1.10,2013-12-09 11:10:00,
2013-12-09 05:25:00,57.3,57.0,30.06,ENE,61,0.0,-999.0,100,-99.99,,,0.01,weatherlink.com 1.10,2013-12-09 11:25:00,
2013-12-09 05:40:00,56.9,57.0,30.07,NW,322,1.0,-999.0,100,-99.99,,,0.01,weatherlink.com 1.10,2013-12-09 11:40:00,
2013-12-09 06:10:00,56.0,56.0,30.07,NE,36,0.0,-999.0,100,-99.99,,,0.02,weatherlink.com 1.10,2013-12-09 12:10:00,
2013-12-09 06:25:00,55.7,56.0,30.08,NNW,333,0.0,-999.0,100,-99.99,,,0.02,weatherlink.com 1.10,2013-12-09 12:25:00,
2013-12-09 06:40:00,55.5,56.0,30.08,NNE,22,0.0,-999.0,100,-99.99,,,0.02,weatherlink.com 1.10,2013-12-09 12:40:00,
2013-12-09 06:55:00,55.4,55.0,30.09,NNW,345,0.0,-999.0,100,-99.99,,,0.02,weatherlink.com 1.10,2013-12-09 12:55:00,
2013-12-09 07:10:00,55.1,55.0,30.09,ENE,63,0.0,-999.0,100,-99.99,,,0.02,weatherlink.com 1.10,2013-12-09 13:10:00,
2013-12-09 07:25:00,55.0,55.0,30.10,NE,53,0.0,-999.0,100,-99.99,,,0.02,weatherlink.com 1.10,2013-12-09 13:25:00,
2013-12-09 07:40:00,54.9,55.0,30.11,ENE,57,0.0,-999.0,100,-99.99,,,0.02,weatherlink.com 1.10,2013-12-09 13:40:00,
2013-12-09 07:55:00,55.1,55.0,30.11,North,10,1.0,-999.0,100,-99.99,,,0.02,weatherlink.com 1.10,2013-12-09 13:55:00,
2013-12-09 08:10:00,55.1,55.0,30.11,NNE,31,0.0,-999.0,100,-99.99,,,0.02,weatherlink.com 1.10,2013-12-09 14:10:00,
2013-12-09 08:26:00,55.3,55.0,30.11,NNE,17,0.0,-999.0,100,-99.99,,,0.02,weatherlink.com 1.10,2013-12-09 14:26:00,
2013-12-09 08:42:00,55.7,56.0,30.11,NE,39,0.0,-999.0,100,-99.99,,,0.02,weatherlink.com 1.10,2013-12-09 14:42:00,
2013-12-09 08:56:00,56.0,56.0,30.12,ENE,57,0.0,-999.0,100,-99.99,,,0.02,weatherlink.com 1.10,2013-12-09 14:56:00,
2013-12-09 09:11:00,56.4,56.0,30.13,NNE,33,0.0,-999.0,100,-99.99,,,0.02,weatherlink.com 1.10,2013-12-09 15:11:00,
2013-12-09 09:26:00,56.4,56.0,30.12,ENE,75,1.0,-999.0,100,-99.99,,,0.02,weatherlink.com 1.10,2013-12-09 15:26:00,
2013-12-09 09:41:00,56.6,57.0,30.13,NE,38,1.0,-999.0,100,-99.99,,,0.02,weatherlink.com 1.10,2013-12-09 15:41:00,
2013-12-09 09:56:00,56.9,57.0,30.13,South,182,0.0,-999.0,99,-99.99,,,0.02,weatherlink.com 1.10,2013-12-09 15:56:00,
2013-12-09 10:11:00,57.2,57.0,30.12,NW,317,0.0,-999.0,99,-99.99,,,0.02,weatherlink.com 1.10,2013-12-09 16:11:00,
2013-12-09 10:26:00,57.5,57.0,30.12,NW,321,0.0,-999.0,98,-99.99,,,0.03,weatherlink.com 1.10,2013-12-09 16:26:00,
2013-12-09 10:41:00,57.7,57.0,30.12,NE,45,0.0,-999.0,98,-99.99,,,0.03,weatherlink.com 1.10,2013-12-09 16:41:00,
2013-12-09 10:56:00,57.9,57.0,30.12,ENE,61,0.0,-999.0,97,-99.99,,,0.03,weatherlink.com 1.10,2013-12-09 16:56:00,
2013-12-09 11:11:00,58.2,57.0,30.11,NNE,21,2.0,-999.0,97,-99.99,,,0.03,weatherlink.com 1.10,2013-12-09 17:11:00,
2013-12-09 11:26:00,58.5,57.0,30.11,NNE,28,0.0,-999.0,96,-99.99,,,0.03,weatherlink.com 1.10,2013-12-09 17:26:00,
2013-12-09 11:41:00,58.8,58.0,30.10,North,349,1.0,-999.0,96,-99.99,,,0.03,weatherlink.com 1.10,2013-12-09 17:41:00,
2013-12-09 11:56:00,59.2,58.0,30.10,NE,42,1.0,-999.0,95,-99.99,,,0.03,weatherlink.com 1.10,2013-12-09 17:56:00,
2013-12-09 12:11:00,60.0,59.0,30.08,ENE,57,0.0,-999.0,95,-99.99,,,0.03,weatherlink.com 1.10,2013-12-09 18:11:00,
2013-12-09 12:25:00,61.1,59.0,30.08,ENE,62,0.0,-999.0,92,-99.99,,,0.03,weatherlink.com 1.10,2013-12-09 18:25:00,
2013-12-09 12:41:00,62.4,60.0,30.07,NW,321,5.0,-999.0,91,-99.99,,,0.03,weatherlink.com 1.10,2013-12-09 18:41:00,
2013-12-09 12:56:00,63.2,60.0,30.06,NNW,334,2.0,-999.0,89,-99.99,,,0.03,weatherlink.com 1.10,2013-12-09 18:56:00,
2013-12-09 13:11:00,64.2,61.0,30.07,NE,51,4.0,-999.0,89,-99.99,,,0.03,weatherlink.com 1.10,2013-12-09 19:11:00,
2013-12-09 13:25:00,65.0,62.0,30.06,East,86,0.0,-999.0,89,-99.99,,,0.03,weatherlink.com 1.10,2013-12-09 19:25:00,
2013-12-09 13:41:00,65.8,62.0,30.05,East,93,1.0,-999.0,87,-99.99,,,0.03,weatherlink.com 1.10,2013-12-09 19:41:00,
2013-12-09 13:56:00,66.5,62.0,30.05,East,92,0.0,-999.0,86,-99.99,,,0.03,weatherlink.com 1.10,2013-12-09 19:56:00,
2013-12-09 14:11:00,67.0,63.0,30.04,East,86,2.0,-999.0,86,-99.99,,,0.03,weatherlink.com 1.10,2013-12-09 20:11:00,
2013-12-09 14:26:00,68.1,64.0,30.04,ESE,117,2.0,-999.0,85,-99.99,,,0.03,weatherlink.com 1.10,2013-12-09 20:26:00,
2013-12-09 14:41:00,68.8,64.0,30.04,East,98,4.0,-999.0,83,-99.99,,,0.03,weatherlink.com 1.10,2013-12-09 20:41:00,
2013-12-09 15:11:00,68.4,64.0,30.04,ESE,107,2.0,-999.0,85,-99.99,,,0.03,weatherlink.com 1.10,2013-12-09 21:11:00,
2013-12-09 15:26:00,68.0,63.0,30.04,ESE,107,1.0,-999.0,84,-99.99,,,0.03,weatherlink.com 1.10,2013-12-09 21:26:00,
2013-12-09 15:41:00,67.5,63.0,30.04,ESE,107,0.0,-999.0,85,-99.99,,,0.03,weatherlink.com 1.10,2013-12-09 21:41:00,
2013-12-09 15:56:00,66.9,63.0,30.04,ESE,107,0.0,-999.0,86,-99.99,,,0.03,weatherlink.com 1.10,2013-12-09 21:56:00,
2013-12-09 16:11:00,66.4,63.0,30.05,ESE,107,0.0,-999.0,87,-99.99,,,0.03,weatherlink.com 1.10,2013-12-09 22:11:00,
2013-12-09 16:26:00,65.8,62.0,30.05,ESE,107,0.0,-999.0,88,-99.99,,,0.03,weatherlink.com 1.10,2013-12-09 22:26:00,
2013-12-09 16:41:00,65.3,62.0,30.05,ESE,107,0.0,-999.0,90,-99.99,,,0.03,weatherlink.com 1.10,2013-12-09 22:41:00,
2013-12-09 16:56:00,64.8,62.0,30.05,ESE,107,0.0,-999.0,90,-99.99,,,0.03,weatherlink.com 1.10,2013-12-09 22:56:00,
2013-12-09 17:11:00,64.0,61.0,30.06,ESE,107,0.0,-999.0,90,-99.99,,,0.03,weatherlink.com 1.10,2013-12-09 23:11:00,
2013-12-09 17:26:00,63.4,61.0,30.06,ESE,106,0.0,-999.0,91,-99.99,,,0.03,weatherlink.com 1.10,2013-12-09 23:26:00,
2013-12-09 17:41:00,62.9,60.0,30.06,ESE,106,0.0,-999.0,91,-99.99,,,0.03,weatherlink.com 1.10,2013-12-09 23:41:00,
2013-12-09 17:56:00,62.4,60.0,30.06,ESE,106,0.0,-999.0,91,-99.99,,,0.03,weatherlink.com 1.10,2013-12-09 23:56:00,
2013-12-09 18:11:00,62.1,60.0,30.06,ESE,106,0.0,-999.0,92,-99.99,,,0.03,weatherlink.com 1.10,2013-12-10 00:11:00,
2013-12-09 18:26:00,61.7,59.0,30.07,ESE,106,0.0,-999.0,91,-99.99,,,0.03,weatherlink.com 1.10,2013-12-10 00:26:00,
2013-12-09 18:41:00,61.3,59.0,30.07,ESE,105,0.0,-999.0,92,-99.99,,,0.03,weatherlink.com 1.10,2013-12-10 00:41:00,
2013-12-09 18:56:00,61.0,59.0,30.07,ESE,105,1.0,-999.0,92,-99.99,,,0.03,weatherlink.com 1.10,2013-12-10 00:56:00,
2013-12-09 19:11:00,60.8,59.0,30.07,ESE,105,0.0,-999.0,92,-99.99,,,0.03,weatherlink.com 1.10,2013-12-10 01:11:00,
2013-12-09 19:26:00,60.6,58.0,30.07,East,99,0.0,-999.0,92,-99.99,,,0.03,weatherlink.com 1.10,2013-12-10 01:26:00,
2013-12-09 19:41:00,60.3,58.0,30.07,East,95,5.0,-999.0,92,-99.99,,,0.03,weatherlink.com 1.10,2013-12-10 01:41:00,
2013-12-09 19:56:00,60.1,58.0,30.07,East,94,0.0,-999.0,93,-99.99,,,0.03,weatherlink.com 1.10,2013-12-10 01:56:00,
2013-12-09 20:12:00,59.9,58.0,30.07,East,92,0.0,-999.0,93,-99.99,,,0.03,weatherlink.com 1.10,2013-12-10 02:12:00,
2013-12-09 20:26:00,59.8,58.0,30.07,East,92,0.0,-999.0,93,-99.99,,,0.03,weatherlink.com 1.10,2013-12-10 02:26:00,
2013-12-09 20:42:00,59.7,58.0,30.07,East,92,0.0,-999.0,93,-99.99,,,0.03,weatherlink.com 1.10,2013-12-10 02:42:00,
2013-12-09 20:56:00,59.5,58.0,30.07,East,92,1.0,-999.0,94,-99.99,,,0.03,weatherlink.com 1.10,2013-12-10 02:56:00,
2013-12-09 21:13:00,59.4,57.0,30.07,East,92,0.0,-999.0,93,-99.99,,,0.03,weatherlink.com 1.10,2013-12-10 03:13:00,
2013-12-09 21:27:00,59.2,57.0,30.07,East,92,0.0,-999.0,93,-99.99,,,0.03,weatherlink.com 1.10,2013-12-10 03:27:00,
2013-12-09 21:42:00,59.1,57.0,30.07,East,92,0.0,-999.0,94,-99.99,,,0.03,weatherlink.com 1.10,2013-12-10 03:42:00,
2013-12-09 21:57:00,59.0,57.0,30.06,East,92,0.0,-999.0,94,-99.99,,,0.03,weatherlink.com 1.10,2013-12-10 03:57:00,
2013-12-09 22:12:00,59.0,57.0,30.06,East,92,0.0,-999.0,94,-99.99,,,0.03,weatherlink.com 1.10,2013-12-10 04:12:00,
2013-12-09 22:26:00,59.0,57.0,30.05,East,92,0.0,-999.0,94,-99.99,,,0.03,weatherlink.com 1.10,2013-12-10 04:26:00,
2013-12-09 22:42:00,59.1,57.0,30.05,East,92,0.0,-999.0,94,-99.99,,,0.03,weatherlink.com 1.10,2013-12-10 04:42:00,
2013-12-09 22:57:00,59.1,57.0,30.04,East,92,0.0,-999.0,94,-99.99,,,0.03,weatherlink.com 1.10,2013-12-10 04:57:00,
2013-12-09 23:12:00,59.2,58.0,30.04,East,92,0.0,-999.0,95,-99.99,,,0.03,weatherlink.com 1.10,2013-12-10 05:12:00,
2013-12-09 23:27:00,59.4,58.0,30.03,East,92,0.0,-999.0,95,-99.99,,,0.03,weatherlink.com 1.10,2013-12-10 05:27:00,
2013-12-09 23:42:00,59.5,58.0,30.04,East,92,0.0,-999.0,95,-99.99,,,0.03,weatherlink.com 1.10,2013-12-10 05:42:00,
2013-12-09 23:57:00,59.5,58.0,30.04,East,92,0.0,-999.0,95,-99.99,,,0.03,weatherlink.com 1.10,2013-12-10 05:57:00,